Date String (YYYY-MM-DD hh:mm:ss) UTC,Instrument flags,Ambient pressure (hPa),Sample flow (lpm),Bypass flow (lpm),Sample temperature (°C),Ambient temperature (°C),ASC tube jacket temperature (°C),LED temperature (°C),Box temperature (°C),Sample RH (%),Span deviation,Mass concentration (μg/m³),Mass concentration (μg/m³),Mass concentration (μg/m³)
DateTimeUTC,F1_M11,P_M11,Q1_M11,Q2_M11,T1_M11,T2_M11,T3_M11,T4_M11,T5_M11,U1_M11,ZSPAN_M11,X2_M11,X0_M11,X1_M11
2022-09-06 15:00:00,,0831.7,5.00,0.00,30.0,27.3,00.0,38.8,31.8,18.8,0002.4,0014.20,0028.09,0012.78
2022-09-06 15:01:00,,0831.7,5.00,0.00,30.0,27.6,00.0,38.7,31.7,19.1,0001.9,0014.14,0027.61,0012.68
2022-09-06 15:02:00,,0831.7,4.99,0.00,30.0,27.9,00.0,38.7,31.7,18.4,0001.6,0014.01,0026.79,0012.58
2022-09-06 15:03:00,,0831.7,5.00,0.00,30.0,28.1,00.0,38.7,31.8,17.2,0001.6,0013.88,0026.30,0012.47
2022-09-06 15:04:00,,0831.7,5.00,0.00,30.0,28.3,00.0,38.7,31.8,17.1,0001.2,0013.74,0026.31,0012.28
2022-09-06 15:05:00,,0831.7,5.00,0.00,30.0,28.5,00.0,38.7,31.8,18.0,0001.3,0013.57,0025.84,0012.09
2022-09-06 15:06:00,,0831.7,5.01,0.00,30.0,28.7,00.0,38.7,31.9,18.5,0002.0,0013.47,0025.76,0011.98
2022-09-06 15:07:00,,0831.7,4.99,0.00,30.0,28.8,00.0,38.7,31.9,19.1,0002.4,0013.50,0026.46,0011.90
2022-09-06 15:08:00,,0831.8,5.00,0.00,30.1,28.9,00.0,38.8,31.9,19.6,0002.4,0013.43,0026.36,0011.82
2022-09-06 15:09:00,,0831.7,4.99,0.00,30.1,29.0,00.0,38.8,32.0,20.6,0002.4,0013.34,0024.78,0011.73
2022-09-06 15:10:00,,0831.7,5.01,0.00,30.1,29.1,00.0,38.8,32.0,19.8,0002.2,0013.23,0023.26,0011.62
2022-09-06 15:11:00,,0831.7,4.99,0.00,30.2,28.9,00.0,38.8,32.0,19.4,0002.3,0013.09,0022.38,0011.52
2022-09-06 15:12:00,,0831.7,5.01,0.00,30.2,27.8,00.0,38.8,31.9,20.3,0002.7,0013.00,0022.35,0011.41
2022-09-06 15:13:00,,0831.7,5.00,0.00,30.1,27.0,00.0,38.8,31.8,20.3,0002.8,0012.98,0022.69,0011.33
2022-09-06 15:14:00,,0831.7,5.00,0.00,30.1,27.2,00.0,38.8,31.8,19.5,0002.8,0012.96,0022.83,0011.28
2022-09-06 15:15:00,,0831.7,4.99,0.00,30.0,27.5,00.0,38.7,31.7,19.2,0003.1,0012.95,0023.50,0011.26
2022-09-06 15:16:00,,0831.7,5.00,0.00,30.0,27.8,00.0,38.7,31.7,19.5,0003.2,0012.96,0023.61,0011.21
2022-09-06 15:17:00,,0831.7,5.00,0.00,30.0,28.1,00.0,38.7,31.7,20.2,0002.8,0012.90,0023.42,0011.13
2022-09-06 15:18:00,,0831.7,5.01,0.00,30.0,28.3,00.0,38.7,31.8,20.5,0002.9,0012.78,0023.63,0011.04
2022-09-06 15:19:00,,0831.7,5.01,0.00,30.0,28.5,00.0,38.7,31.8,20.3,0003.1,0012.68,0024.31,0010.96
2022-09-06 15:20:00,,0831.7,4.99,0.00,30.0,28.7,00.0,38.7,31.9,20.5,0002.9,0012.66,0025.67,0010.90
2022-09-06 15:21:00,,0831.7,5.01,0.00,30.0,28.8,00.0,38.7,31.9,20.0,0002.9,0012.59,0025.75,0010.85
2022-09-06 15:22:00,,0831.7,4.99,0.00,30.0,28.9,00.0,38.8,31.9,19.0,0002.5,0012.52,0025.99,0010.80
2022-09-06 15:23:00,,0831.7,5.01,0.00,30.1,29.0,00.0,38.8,32.0,19.5,0002.5,0012.48,0026.41,0010.76
2022-09-06 15:24:00,,0831.7,4.99,0.00,30.1,28.7,00.0,38.8,32.0,19.0,0002.4,0012.42,0026.88,0010.72
2022-09-06 15:25:00,,0831.8,5.00,0.00,30.1,27.5,00.0,38.8,31.9,18.8,0002.3,0012.36,0027.79,0010.72
2022-09-06 15:26:00,,0831.7,5.00,0.00,30.0,27.0,00.0,38.7,31.8,18.5,0002.5,0012.35,0028.18,0010.76
2022-09-06 15:27:00,,0831.8,5.00,0.00,30.0,27.2,00.0,38.7,31.8,19.0,0002.8,0012.30,0028.25,0010.80
2022-09-06 15:28:00,,0831.8,4.99,0.00,30.0,27.5,00.0,38.7,31.7,19.6,0002.5,0012.29,0028.28,0010.85
2022-09-06 15:29:00,,0831.9,5.01,0.00,29.9,27.8,00.0,38.7,31.7,20.7,0002.9,0012.28,0027.49,0010.92
2022-09-06 15:30:00,,0831.9,5.00,0.00,29.9,28.1,00.0,38.7,31.7,20.1,0002.4,0012.34,0027.19,0011.02
2022-09-06 15:31:00,,0832.0,5.00,0.00,29.9,28.3,00.0,38.7,31.7,20.6,0002.3,0012.38,0026.73,0011.07
2022-09-06 15:32:00,,0832.0,5.01,0.00,30.0,28.5,00.0,38.7,31.8,19.1,0002.5,0012.34,0025.43,0011.11
2022-09-06 15:33:00,,0831.9,5.01,0.00,30.0,28.7,00.0,38.7,31.9,19.7,0003.0,0012.47,0026.00,0011.20
2022-09-06 15:34:00,,0832.0,4.99,0.00,30.0,28.8,00.0,38.7,31.9,19.9,0002.9,0012.55,0026.24,0011.26
2022-09-06 15:35:00,,0832.0,5.01,0.00,30.0,29.0,00.0,38.7,31.9,19.4,0002.2,0012.59,0025.42,0011.35
2022-09-06 15:36:00,,0832.0,4.98,0.00,30.1,28.9,00.0,38.7,32.0,18.7,0002.1,0012.63,0024.11,0011.41
2022-09-06 15:37:00,,0832.0,4.99,0.00,30.1,27.8,00.0,38.7,31.8,19.2,0002.3,0012.65,0022.68,0011.48
2022-09-06 15:38:00,,0832.0,5.02,0.00,30.0,27.0,00.0,38.7,31.7,19.4,0002.2,0012.70,0021.63,0011.53
2022-09-06 15:39:00,,0831.9,5.00,0.00,30.0,27.1,00.0,38.7,31.7,19.1,0002.2,0012.74,0021.20,0011.58
2022-09-06 15:40:00,,0832.0,5.00,0.00,29.9,27.4,00.0,38.6,31.6,19.5,0002.2,0012.81,0020.82,0011.61
2022-09-06 15:41:00,,0831.9,5.00,0.00,29.9,27.7,00.0,38.6,31.6,20.0,0001.9,0012.84,0020.44,0011.62
2022-09-06 15:42:00,,0831.9,5.00,0.00,29.9,28.0,00.0,38.6,31.7,20.0,0002.0,0012.86,0021.42,0011.60
2022-09-06 15:43:00,,0831.9,5.01,0.00,29.9,28.3,00.0,38.6,31.7,19.8,0002.0,0012.88,0022.44,0011.59
2022-09-06 15:44:00,,0832.0,5.01,0.00,29.9,28.5,00.0,38.6,31.8,19.4,0001.7,0012.89,0022.63,0011.61
2022-09-06 15:45:00,,0832.0,4.99,0.00,29.9,28.6,00.0,38.6,31.8,18.9,0001.9,0012.94,0021.50,0011.66
2022-09-06 15:46:00,,0832.0,5.01,0.00,30.0,28.7,00.0,38.7,31.8,18.3,0002.3,0013.02,0022.23,0011.69
2022-09-06 15:47:00,,0832.0,4.99,0.00,30.0,28.9,00.0,38.7,31.9,19.2,0002.7,0013.12,0023.39,0011.74
2022-09-06 15:48:00,,0832.0,5.01,0.00,30.0,28.9,00.0,38.7,31.9,20.1,0002.5,0013.31,0025.59,0011.78
2022-09-06 15:49:00,,0832.0,5.00,0.00,30.0,28.2,00.0,38.7,31.9,20.3,0002.3,0013.43,0026.28,0011.81
2022-09-06 15:50:00,,0832.0,5.00,0.00,30.0,27.1,00.0,38.7,31.8,20.3,0002.1,0013.54,0026.93,0011.84
2022-09-06 15:51:00,,0832.0,5.00,0.00,30.0,27.1,00.0,38.6,31.8,19.6,0002.7,0013.55,0027.36,0011.86
2022-09-06 15:52:00,,0832.0,4.99,0.00,29.9,27.4,00.0,38.6,31.7,19.7,0003.2,0013.61,0027.63,0011.88
2022-09-06 15:53:00,,0832.0,4.99,0.00,29.9,27.7,00.0,38.6,31.6,19.4,0003.6,0013.67,0029.17,0011.93
2022-09-06 15:54:00,,0832.0,5.01,0.00,29.9,28.0,00.0,38.6,31.7,19.5,0003.9,0013.74,0029.37,0011.99
2022-09-06 15:55:00,,0831.9,5.00,0.00,29.9,28.2,00.0,38.6,31.7,18.9,0004.2,0013.78,0029.91,0012.04
2022-09-06 15:56:00,,0832.0,5.00,0.00,29.9,28.4,00.0,38.6,31.8,20.1,0004.4,0013.76,0030.38,0012.04
2022-09-06 15:57:00,,0832.0,5.01,0.00,29.9,28.6,00.0,38.6,31.8,20.6,0003.8,0013.73,0030.76,0012.02
2022-09-06 15:58:00,,0832.1,4.99,0.00,30.0,28.7,00.0,38.6,31.8,19.7,0003.1,0013.65,0030.42,0012.00
2022-09-06 15:59:00,,0832.1,5.01,0.00,30.0,28.6,00.0,38.7,31.9,20.5,0003.0,0013.58,0029.62,0012.01
